📊 Raw Sensor Data

Showing records 33476 to 33500 of 84,778 total

ID Distance (ft) Battery V Battery A Int Temp (°F) Int Humid (%) Ext Temp (°F) Solar V RSSI SNR Time Stamp
51315 15.2 3.99 6 78 41 78 5.10 -74 7 09/07/2025 10:45 AM
51314 14.6 3.99 0 77 41 72 5.10 -74 8 09/07/2025 10:30 AM
51313 15.2 3.99 6 76 41 78 5.10 -74 8 09/07/2025 10:15 AM
51312 14.4 4.00 6 74 41 77 5.10 -74 5 09/07/2025 10:00 AM
51311 15.2 4.08 6 72 41 73 5.10 -73 7 09/07/2025 09:45 AM
51310 14.3 3.99 0 70 41 76 5.10 -74 7 09/07/2025 09:30 AM
51309 15.1 4.05 6 68 41 74 5.10 -73 8 09/07/2025 09:15 AM
51308 14.1 4.10 6 67 41 72 5.10 -72 8 09/07/2025 09:00 AM
51307 15.1 3.99 0 65 41 70 5.10 -74 7 09/07/2025 08:45 AM
51306 14.1 3.99 6 63 41 71 5.10 -74 8 09/07/2025 08:30 AM
51305 15.0 3.99 6 62 41 70 5.10 -72 8 09/07/2025 08:15 AM
51304 15.1 3.99 6 61 41 70 5.10 -73 7 09/07/2025 08:00 AM
51303 14.9 4.09 51 59 42 67 4.50 -71 8 09/07/2025 07:45 AM
51302 14.9 4.01 32 57 42 65 4.50 -73 8 09/07/2025 07:30 AM
51301 15.0 4.00 10 55 43 60 4.50 -73 7 09/07/2025 07:15 AM
51300 14.8 3.97 -5 54 43 57 4.50 -72 8 09/07/2025 07:00 AM
51299 14.9 3.91 -15 54 43 55 4.10 -73 8 09/07/2025 06:45 AM
51298 14.7 3.97 -5 53 43 55 1.40 -73 8 09/07/2025 06:30 AM
51297 14.6 3.98 -5 53 43 54 0.00 -71 8 09/07/2025 06:15 AM
51296 14.8 3.92 -5 52 43 54 0.00 -73 8 09/07/2025 06:00 AM
51295 14.8 3.98 -5 52 43 54 0.00 -71 8 09/07/2025 05:45 AM
51294 14.8 3.98 -5 52 43 54 0.00 -72 8 09/07/2025 05:30 AM
51293 14.8 3.92 -5 52 44 54 0.00 -72 7 09/07/2025 05:15 AM
51292 14.8 3.98 -5 53 44 53 0.00 -71 8 09/07/2025 05:00 AM
51291 14.8 3.92 -5 53 44 54 0.10 -72 8 09/07/2025 04:45 AM